Location: Behasque
(43.3242°N, 1.0103°W)
Time: 10:13:37
(UTC+00:00)

Daily predictions for brighter satellites

Satellite Brightness Start Highest point End
(mag) Time Altitude Azimuth Time Altitude Azimuth Time Altitude Azimuth
ADEOS 4.3 19:45:23 10° SE 19:50:05 36° ENE 19:54:50 10° N
USA 306 3.2 19:48:06 10° WSW 19:51:44 49° NW 19:54:28 10° NE
IRAS Rocket 4.3 19:46:33 10° SSE 19:51:57 66° ENE 19:57:25 10° N
Cosmos 1302 Rocket 4.5 19:47:16 10° S 19:51:59 38° ESE 19:56:46 10° NE
Cosmos 724 4.3 19:51:30 10° SSW 19:57:32 77° ESE 20:03:29 10° NE
CZ-4C R/B 2.3 19:53:53 10° SW 19:57:54 62° NW 20:03:00 10° NNE
Cosmos 2016 Rocket 4.4 19:52:09 10° SSE 19:58:03 45° E 20:03:52 10° NNE
SL-16 R/B 4.1 19:54:34 10° N 19:58:11 17° NE 20:01:48 10° E
Cosmos 2173 Rocket 4.0 19:52:13 10° S 19:58:19 77° E 20:04:34 10° N
Meteor 1-31 Rocket 2.5 19:59:54 10° SSE 20:03:22 86° WSW 20:06:51 10° NNW
SL-08 R/B 3.9 20:00:32 10° NNE 20:04:58 36° E 20:09:18 10° SSE
DELTA 2 R/B (1) 3.8 20:02:07 10° WSW 20:07:31 52° SSE 20:12:54 10° E
Cosmos 1816 Rocket 4.5 20:01:29 10° N 20:07:37 70° E 20:13:45 10° SSE
COSMOS 2406 4.2 20:03:29 10° SSE 20:08:04 25° ESE 20:12:40 10° NE
Terra 1.9 20:06:49 10° SSE 20:11:27 64° ENE 20:16:06 10° N
NOSS 3-3 (C) 3.9 20:08:12 10° S 20:12:56 42° ESE 20:18:24 10° NE
Helios 1A Rocket 2.1 20:10:10 10° NNE 20:13:19 71° ESE 20:16:27 10° S
BREEZE-M DEB (TANK) 3.6 20:11:53 10° W 20:14:13 34° SSW 20:18:22 11° SE
CZ-4 R/B 1.5 20:11:00 10° S 20:14:34 64° W 20:18:11 10° NNW
Cosmos 1743 2.3 20:11:51 10° N 20:14:47 49° E 20:17:25 12° SSE
CZ-4B R/B 4.4 20:11:04 10° S 20:15:01 59° W 20:19:01 10° NNW
Cosmos 1980 Rocket 2.2 20:10:10 10° NNW 20:15:54 85° ENE 20:21:34 10° SSE
Cosmos 1850 Rocket 4.1 20:11:29 10° NNW 20:16:39 78° WSW 20:21:49 10° SSE
Sich 1 Rocket 4.0 20:13:12 10° SSW 20:17:31 66° W 20:21:53 10° N
MetOp-B 4.1 20:14:35 10° SSE 20:19:55 76° ENE 20:25:17 10° N
Delta 2 Rocket 4.3 20:18:26 10° SSW 20:20:20 15° S 20:21:01 14° SSE
Cosmos 2333 Rocket 3.8 20:19:21 10° N 20:23:47 23° NE 20:28:05 10° E
CBERS 1 LM4 rocket 4.5 20:20:01 10° SSE 20:24:57 87° ENE 20:30:08 10° NNW
Cosmos 2061 Rocket 4.3 20:22:31 10° SSE 20:28:25 48° E 20:34:26 10° NNE
Cosmos 1782 2.4 20:26:19 10° S 20:29:48 75° E 20:33:20 10° NNE
Cosmos 1607 4.2 20:31:53 10° SW 20:38:00 72° NW 20:44:17 10° NNE
CZ-4B R/B 3.4 20:33:54 10° S 20:39:33 78° WSW 20:45:12 10° NNW
Ariane Rocket 4.3 20:37:06 15° ESE 20:39:59 25° ENE 20:44:04 10° N
BREEZE-M DEB (TANK) 3.3 20:37:02 10° WNW 20:40:04 75° SSW 20:45:49 17° SE
Cosmos 1802 Rocket 4.2 20:34:14 10° SSW 20:40:24 74° W 20:46:34 10° N
Cosmos 2360 Rocket 4.0 20:37:31 10° N 20:41:27 19° NE 20:45:21 10° E
Spot 2 Rocket 3.5 20:41:16 16° SSE 20:45:14 72° ENE 20:50:16 10° N
ERS-1 Rocket 4.0 20:49:29 10° S 20:54:15 44° W 20:59:03 10° NNW
Cosmos 2219 Rocket 4.3 20:52:02 10° N 20:55:24 16° NE 20:58:44 10° E
Okean O Rocket 1.5 20:52:45 21° SSE 20:55:35 84° ENE 20:59:54 10° NNW
Cosmos 2151 3.7 20:52:03 10° N 20:55:49 34° ENE 20:57:14 26° ESE
Gbstr 26 Del rocket 3.8 20:52:40 10° WNW 20:57:27 45° SW 20:59:39 24° SSE
Cosmos 1455 Rocket 4.3 20:53:25 10° SSW 20:57:36 42° WNW 21:01:47 10° N
ATLAS 3B R/B 4.2 20:53:08 10° NW 20:59:47 34° WSW 21:06:03 10° S
Cosmos 1461 2.6 20:56:18 10° SSW 20:59:54 52° ESE 21:03:30 10° NE
CZ-2C R/B 4.1 21:01:38 15° ENE 21:01:38 15° ENE 21:03:07 10° NNE
USA 305 3.6 21:03:02 10° WNW 21:06:43 34° SW 21:07:56 26° S
MOS 1-B 4.4 21:03:51 19° SSE 21:08:09 82° WSW 21:14:00 10° NNW
Cosmos 1992 Rocket 4.1 21:03:41 10° SSW 21:08:53 79° WNW 21:14:07 10° NNE
USA 186 1.6 21:09:07 46° SSW 21:09:41 62° WSW 21:12:25 10° NNW
CZ-4B R/B 3.8 21:07:48 28° SE 21:09:51 46° ENE 21:14:27 10° N
Cosmos 2233 Rocket 4.3 21:04:11 10° SSW 21:10:21 69° W 21:16:30 10° N
Cosmos 1437 Rocket 2.6 21:09:58 42° SE 21:10:47 53° E 21:14:16 10° NNE
Cosmos 1544 Rocket 3.4 21:08:29 25° S 21:10:54 70° E 21:15:12 10° NNE
Cosmos 2237 4.3 21:05:29 10° NNW 21:11:14 79° WSW 21:14:39 25° SSE
Cosmos 2322 Rocket 3.3 21:07:55 10° N 21:12:58 32° NE 21:15:45 21° E
Cosmos 2082 Rocket 3.2 21:08:20 10° SW 21:13:51 48° WNW 21:19:22 10° NNE
Cosmos 2228 4.1 21:10:08 10° SSW 21:14:02 41° WNW 21:17:56 10° N
Okean-O 2.9 21:12:28 22° S 21:15:10 62° W 21:19:31 10° NNW
Cosmos 2369 4.1 21:13:08 10° NNW 21:18:44 60° WSW 21:22:12 23° S
IRS-1C Rocket 4.2 21:20:12 32° SE 21:22:31 60° ENE 21:27:43 10° N
ISS -1.1 21:20:29 10° WNW 21:23:04 20° N 21:25:39 10° NE
CZ-4B R/B 2.3 21:29:25 66° SSE 21:29:49 88° E 21:33:16 10° NNW
Nadezhda 4 Rocket 4.5 21:24:21 10° N 21:30:10 44° ENE 21:32:26 32° ESE
Cosmos 1758 Rocket 3.6 21:26:17 10° NNW 21:30:41 75° W 21:32:25 36° S
USA 290 4.5 21:33:39 15° NE 21:33:39 15° NE 21:34:25 10° NE
Cosmos 1486 Rocket 4.4 21:30:27 10° N 21:35:35 50° ENE 21:37:16 37° ESE
Cosmos 2278 3.8 21:32:22 10° NNW 21:38:05 66° ENE 21:40:11 38° SE
SL-16 R/B 2.1 21:37:23 10° NNW 21:43:05 90° ENE 21:45:09 41° SSE
Cosmos 1825 Rocket 4.1 21:40:15 10° N 21:44:23 41° ENE 21:44:44 40° E
Terra 4.3 21:47:00 10° WSW 21:49:23 14° W 21:51:49 10° WNW
COSMOS 2406 4.1 21:46:26 10° SW 21:51:59 50° WNW 21:57:35 10° NNE
DELTA 2 R/B (1) 3.6 21:48:07 10° W 21:53:34 58° S 21:54:35 49° SE
Cosmos 1602 Rocket 3.6 21:50:49 10° NNW 21:55:07 73° W 21:55:55 56° SSW
Cosmos 1933 4.1 21:54:10 32° SW 21:55:26 44° WNW 21:59:06 10° N
Cosmos 540 Rocket 3.7 21:58:20 45° ESE 21:58:26 46° ESE 22:03:21 10° NNE
Cosmos 2333 Rocket 2.4 22:02:54 10° NNW 22:08:34 65° WSW 22:10:06 46° S
Cosmos 1805 3.7 22:05:33 10° NNW 22:08:08 47° NW 22:08:08 47° NW
Cosmos 1833 4.1 22:11:32 54° SSE 22:12:39 68° ESE 22:18:16 10° NNE
Cosmos 2098 Rocket 3.6 22:11:54 40° SW 22:13:24 58° W 22:17:43 10° N
Geosat 3.8 22:09:14 10° NNE 22:14:14 68° ESE 22:14:40 64° SSE
Cosmos 1464 Rocket 4.0 22:13:35 35° SSW 22:16:17 73° W 22:22:29 10° N
Ariane Rocket 3.8 22:17:10 34° SW 22:18:37 42° W 22:23:25 10° NNW
NOSS 3-4 (A) 3.8 22:12:30 10° NW 22:19:25 89° NE 22:22:14 44° SE
Cosmos 1076 Rocket 3.5 22:15:10 10° N 22:19:11 70° NE 22:19:11 70° NE
NOSS 3-4 (C) 3.8 22:13:08 10° NW 22:20:04 89° ENE 22:22:54 44° SE
Cosmos 1536 4.3 22:19:10 10° NNE 22:21:26 25° NE 22:21:26 25° NE
Helios 1B rocket 3.7 22:25:59 28° NE 22:25:59 28° NE 22:28:12 10° N
Okean 1 3.9 22:26:39 48° NW 22:26:39 48° NW 22:29:33 10° N
Cosmos 2360 Rocket 2.1 22:20:26 10° NNW 22:26:07 81° WSW 22:27:05 62° S
Cosmos 1606 Rocket 4.0 22:26:13 49° WSW 22:26:45 53° W 22:31:00 10° N
Helios 1A 3.4 22:23:54 10° NNE 22:26:53 49° NE 22:26:53 49° NE
Cosmos 2333 4.1 22:25:42 10° NNW 22:31:27 87° WSW 22:32:21 65° SSE
USA 234 3.9 22:27:13 10° ENE 22:32:06 36° ESE 22:32:06 36° ESE
Cosmos 1726 Rocket 3.8 22:36:11 55° WNW 22:36:11 55° WNW 22:39:57 10° N
Cosmos 1763 Rocket 3.6 22:35:25 54° SW 22:36:34 73° WNW 22:41:52 10° NNE
Cosmos 1092 Rocket 3.9 22:33:02 10° N 22:39:12 72° E 22:40:16 59° SE
Cosmos 2219 Rocket 2.0 22:34:32 10° NNW 22:40:14 83° ENE 22:40:55 69° SE
RESURS DK-1 4.3 22:41:26 10° N 22:44:27 20° NE 22:44:27 20° NE
Cosmos 990 Rocket 3.8 22:42:26 10° NNW 22:47:37 83° WSW 22:47:45 82° SW
Cosmos 2034 Rocket 4.4 22:51:52 39° SW 22:54:02 58° W 23:00:19 10° N
Cosmos 2322 Rocket 2.8 22:51:47 10° NW 22:57:04 42° WSW 22:57:32 41° WSW
ISS -1.4 22:57:52 10° NW 23:00:22 23° N 23:00:22 23° N
Cosmos-2242 3.8 23:06:33 44° NW 23:06:33 44° NW 23:09:59 10° N
Meteor 2-2 Rocket 4.3 23:06:39 60° WSW 23:07:26 68° WNW 23:13:10 10° N
Cosmos 841 Rocket 4.0 23:09:02 46° ENE 23:09:02 46° ENE 23:13:15 10° NNE
Meteor 2-9 Rocket 4.4 23:05:02 10° N 23:10:20 55° ENE 23:10:27 55° E
Cosmos 44 3.4 23:05:45 10° NNW 23:11:09 77° NE 23:11:09 77° NE
CZ-2C R/B 4.0 23:08:31 10° NNE 23:12:13 60° NNE 23:12:13 60° NNE
Cosmos 2279 Rocket 3.8 23:14:25 72° SSE 23:15:05 83° E 23:21:23 10° N
Cosmos 2237 Rocket 3.9 23:10:39 10° N 23:15:17 25° NE 23:17:27 20° E
Cosmos 1634 Rocket 4.1 23:17:33 56° SW 23:18:38 66° W 23:24:48 10° N
CZ-2C R/B 4.0 23:18:46 26° E 23:19:35 27° ENE 23:23:55 10° N
Meteor 1-11 Rocket 4.3 23:15:37 10° N 23:21:02 44° ENE 23:21:21 44° E
COSMOS 2428 2.9 23:18:43 10° NNW 23:24:22 62° ENE 23:24:48 60° E
Cosmos 2227 Rocket 4.3 23:26:17 14° E 23:26:17 14° E 23:28:24 10° ENE
SL-16 R/B 4.4 23:23:59 10° WNW 23:26:16 13° W 23:26:59 12° WSW
ACS3 Solar Sail 3.7 23:24:44 10° NE 23:28:03 15° E 23:28:30 15° E
Cosmos 2221 3.4 23:31:11 44° N 23:31:11 44° N 23:34:06 10° N
Cosmos 372 Rocket 4.0 23:25:47 10° NNW 23:30:22 69° NW 23:30:22 69° NW
SL-08 ROCKET BODY 4.4 23:28:03 10° NNW 23:34:12 73° W 23:34:43 69° SW
Cosmos 2263 Rocket 4.5 23:37:50 11° E 23:37:50 11° E 23:38:29 10° E
Meteor 1-27 Rocket 4.3 23:39:18 46° E 23:39:18 46° E 23:44:43 10° NNE
GP-B 4.1 23:35:31 10° N 23:38:41 41° NE 23:38:41 41° NE
Aureole 1 Rocket 4.3 23:34:49 10° NNW 23:40:36 54° WSW 23:41:00 53° WSW
Spot 4 4.4 23:46:40 51° WNW 23:46:40 51° WNW 23:50:37 10° NNW
Meteor 1-14 Rocket 4.2 23:41:08 10° NNW 23:46:30 69° W 23:46:30 69° W
Cosmos 2266 Rocket 3.8 23:41:20 10° N 23:47:24 75° E 23:47:46 73° ESE
ARIANE 5 R/B 3.6 23:49:14 41° NW 23:49:14 41° NW 23:52:29 10° NNW
Cosmos 1937 Rocket 3.5 23:44:04 10° NNW 23:48:46 72° N 23:48:46 72° N
ALOS 2 3.5 23:50:33 45° NW 23:50:33 45° NW 23:53:47 10° NNW
ARGOS Delta rocket 4.3 23:49:24 10° N 23:54:29 60° WNW 23:54:30 60° WNW
